STARLINK-4598, 53630

Orbit data source: Space-Track

STARLINK-4598, 53630 is a payload satellite owned by SpaceX/Seattle (US) in LEO that was launched on Sun, 28 Aug 2022 UTC via an FALCON 9 launch vehicle from the Air Force Eastern Test Range (AFETR). Payload-class satellites include a variety of spacecraft equipped with specific instruments for various scientific and technological missions. These include communications satellites like Starlink; space stations such as the ISS; scientific satellites like the Hubble; Earth observation satellites from companies like Planet Labs, Umbra, and HawkEye 360; GPS; miniature CubeSats for education and research; and military/defense satellites.

Loading next visibility...
Identifier
53630, 2022-104AU
Orbit
LEO
Country
Flag of USUS
Related business
Manufacturer
SpaceX/Seattle
Mission
Operational Commercial Communications
Bus & Motor
STARLINK, Unknown motor
Mass
300 kg wet, ~290 kg dry
Launch date (UTC)
2022-08-28 (3 years ago)
Launch vehicle
FALCON 9
Launch site
Air Force Eastern Test Range (AFETR)
Object type
Payload
Rocket body
Debris
Shape & HBR
Box + 1 Pan, 10.1 m
Radar Cross Section
13.562 m², Large (>1 m²)

Expand to show TLE details & history
Last TLE update: 1 day ago

TLE from 1 day ago
0 STARLINK-4598
1 53630U 22104AU  25301.13937099 -.00000170  00000-0  73831-5 0  9994
2 53630  53.2169  99.2342 0001237  83.1588 276.9545 15.08836130176052
Epoch: 2025-10-28T03:20Z
TLE epoch observation values (Epoch: 2025-10-28T03:20:41.653Z)
Latitude
-0.00001°
Longitude
12.32949°
Altitude
540.549 km
Speed
7.593 km/s
True Right ascension
06h 36m 56s
True Declination
0° 00' 00"
Sunlit
Object was in partial shadow at epoch
Visualization orbit readout
Latitude
Unknown
Longitude
Unknown
Altitude
Unknown
Speed
Unknown
Apparent Right ascension
Unknown
Apparent Declination
Unknown
Sunlit
N/A
Visualization observer readout
Local Sidereal Time
00:32:21
Azimuth
Unknown
Elevation
Unknown
Doppler factor
Unknown
Orbital elements
Apogee altitude
540.856 km
Perigee altitude
539.144 km
Semi-major axis
6,918.137 km
Eccentricity
0.00012
Inclination
53.2169°
RAAN
99.2342°
Arg. of periapsis
83.1588°
True anomaly
276.94043°
Mean anomaly
276.9545°
Eccentric anomaly
276.94746°
Mean motion
3.77189 °/min
Orbital period
95.44 mins
BSTAR
0.0000073831
Loading maneuver chart data...
Computing Atmospheric mass density...
Loading historical data...
Loading historical data...
Loading historical data...
Loading historical data...
Loading historical data...
Loading historical data...
Loading historical data...

Documentation

Showing up to 5 results
|